User: anonymous   Login
Location: Burgberg
(50.1428°N, 11.0671°E)
Time: 01:54:12
(UTC+00:00)
Language:

Cosmos 371 Rocket - Orbit

View from above orbital plane
View from above orbital plane
View from above satellite
View from above satellite

Ground track
Ground track

The orbit data is extracted from the following two-line orbital elements,

1  4579U 70083B   20091.86345922  .00000002  00000-0  66577-5 0  9992
2  4579  74.0014 302.7520 0009503  62.5424 297.6707 14.60471145623486
Epoch (UTC): 31 March 2020 20:43:22
Eccentricity: 0.0009503
inclination: 74.0014°
perigee height: 685 km
apogee height: 698 km
right ascension of ascending node: 302.7520°
argument of perigee: 62.5424°
revolutions per day: 14.60471145
mean anomaly at epoch: 297.6707°
orbit number at epoch: 62348

The dashed part of the orbit path shows where the satellite is in the earth's shadow,  

DLR